• MPC Preparation (Info)

  • MPEC 2023-M57 : 2023 MV

    The following Minor Planet Electronic Circular may be linked-to from your own Web pages, but must not otherwise be redistributed electronically.

    A form allowing access to any MPEC is at the bottom of this page.


    Read MPEC 2023-M56 Read MPEC 2023-M58


    M.P.E.C. 2023-M57                                 Issued 2023 June 20, 10:38 UT
    
         The Minor Planet Electronic Circulars contain information on unusual
             minor planets, routine data on comets and natural satellites,
             and occasional editorial announcements.  They are published
        on behalf of Division F of the International Astronomical Union by the
              Minor Planet Center, Smithsonian Astrophysical Observatory,
                              Cambridge, MA 02138, U.S.A.
    			  
                 Prepared using the Tamkin Foundation Computer Network
    
                                  MPC@CFA.HARVARD.EDU
                URL https://www.minorplanetcenter.net/    ISSN 1523-6714
    
                                     2023 MV                                 
    
    
    Observations:
         K23M00V 1C2023 06 09.37075 17 03 23.23 +00 32 51.3          20.5 GVEM057G96
         K23M00V 1C2023 06 09.37638 17 03 21.54 +00 32 38.7          22.1 GVEM057G96
         K23M00V 1C2023 06 09.38200 17 03 19.81 +00 32 26.2          21.5 GVEM057G96
         K23M00V* C2023 06 19.34247115 43 37.209-10 45 57.34         20.06wXEM057F51
         K23M00V  C2023 06 19.35683715 43 25.980-10 47 28.67         20.91wXEM057F51
         K23M00V  C2023 06 19.37125115 43 14.718-10 48 59.90         20.13wXEM057F51
         K23M00V 7C2023 06 19.86167415 36 58.466-11 42 17.99         19.8 GVEM057Z84
         K23M00V 7C2023 06 19.86826615 36 53.070-11 43 01.85         20.5 GVEM057Z84
         K23M00V 7C2023 06 19.87400715 36 48.407-11 43 39.39         21.3 GVEM057Z84
         K23M00V KC2023 06 19.91856215 36 10.88 -11 48 41.0          19.9 GVEM057L01
         K23M00V KC2023 06 19.92004515 36 09.69 -11 48 50.9          20.5 GVEM057L01
         K23M00V KC2023 06 19.92152715 36 08.47 -11 49 00.7          19.9 GVEM057L01
         K23M00V KC2023 06 19.92300915 36 07.26 -11 49 10.7          20.4 GVEM057L01
         K23M00V KC2023 06 19.92449115 36 06.05 -11 49 20.6          20.3 GVEM057L01
         K23M00V KC2023 06 19.92606715 36 04.77 -11 49 30.6          20.4 GVEM057L01
         K23M00V KB2023 06 20.02765015 34 44.893-11 59 33.83         20.7 GXEM057Y05
         K23M00V KB2023 06 20.03492915 34 38.815-12 00 22.58         21.1 GXEM057Y05
         K23M00V KB2023 06 20.04210815 34 32.806-12 01 10.02         20.9 GXEM057Y05
    
    Observer details:
    F51 Pan-STARRS 1, Haleakala.  Observers J. Bulger, T. Lowe, P. Minguez, A.
        Schultz, I. Smith.  Measurers K. Chambers, T. de Boer, J. Bulger, J.
        Fairlamb, H. Gao, M. Huber, C.-C. Lin, T. Lowe, E. Magnier, P. Minguez, Y.
        Ramanjooloo, A. Schultz, I. Smith, R. Wainscoat, R. Weryk.  1.8-m Ritchey-
        Chretien + CCD.
    G96 Mt. Lemmon Survey.  Observer A. Serrano.  Measurers B. Gray, D. Rankin, F.
        C. Shelly.  1.5-m reflector + 10K CCD.
    L01 Visnjan Observatory, Tican.  Observer K. Korlevic.  1.0-m f/2.9 reflector
        + CCD.
    Y05 SONEAR Wykrota-CEAMIG, Serra da Piedade.  Observer C. Jacques.  0.45-m
        f/2.9 reflector + CMO.
    Z84 Calar Alto-Schmidt.  Observers R. Kresken, F. Ocana, M. Micheli, L.
        Conversi.  Measurers F. Ocana, M. Micheli.  0.8-m f/3 Schmidt + CCD.
    
    Orbital elements:
    2023 MV                                                  Earth MOID = 0.0330 AU
    Epoch 2023 Feb. 25.0 TT = JDT 2460000.5                 Veres                   
    M 230.64576              (2000.0)            P               Q                  
    n   0.69320809     Peri.  280.01536     +0.92593554     -0.10623088             
    a   1.2644266      Node    86.76569     +0.25400695     +0.88533726             
    e   0.4505101      Incl.   21.28530     -0.27950644     +0.45265101             
    P   1.42           H   23.80          G   0.15           U   9                  
    Residuals in seconds of arc
    230609 G96  0.2-  0.5-    230619 Z84  0.1+  0.1-    230619 L01  0.0   0.1-
    230609 G96  0.2+  0.0     230619 Z84  0.2-  0.3-    230619 L01  0.0   0.2-
    230609 G96  0.0   0.5+    230619 Z84  0.1+  0.3+    230619 L01  0.1+  0.2+
    230619 F51  0.0   0.2+    230619 L01  0.2-  0.2+    230620 Y05  0.2+  0.1-
    230619 F51  0.1-  0.1+    230619 L01  0.1+  0.1+    230620 Y05  0.2+  0.1-
    230619 F51  0.2+  0.4+    230619 L01  0.0   0.1+    230620 Y05  0.0   0.4+
    
    Ephemeris:
    2023 MV                  a,e,i = 1.26, 0.45, 21                  q = 0.6948
    Date    TT    R. A. (2000) Decl.     Delta      r    Elong.  Phase     V
    2023 05 21    17 49 19.6 +05 21 46   0.3755  1.3250   141.0    28.7    23.5
    ...
    2023 06 05    17 21 01.0 +02 46 48   0.2275  1.2225   153.6    21.6    22.1
    ...
    2023 06 13    16 42 37.6 -02 18 00   0.1601  1.1645   157.0    19.9    21.2
    ...
    2023 06 19    15 47 50.5 -10 09 30   0.1197  1.1198   148.5    28.3    20.7
    2023 06 20    15 35 07.7 -11 56 34   0.1143  1.1123   145.6    31.1    20.7
    2023 06 21    15 21 06.8 -13 51 40   0.1094  1.1047   142.2    34.3    20.6
    ...
    2023 06 27    13 27 40.2 -26 21 31   0.09451 1.0590   114.3    61.0    21.0
    ...
    2023 07 05    10 38 09.2 -32 48 47   0.1162  0.9973    77.2    96.3    22.6
    ...
    2023 07 20    08 20 44.9 -26 10 20   0.2178  0.8835    47.4   122.2    25.2
    
    M. P. C. Staff               (C) Copyright 2023 MPC           M.P.E.C. 2023-M57
    


    Read MPEC 2023-M56 Read MPEC 2023-M58


    MPEC number:

    Enter an MPEC number in one of the following forms:

    • 1997-B01 (the full form)
    • J97B01 (the packed version of the full form)
    • B01 (the abbreviated form)